Atlanta Dekalb, GA

7:02 PM EDT on June 24, 2017 (GMT -0400)
Dekalb-Peachtree

Weather History for KPDK - June, 2013

Change the Weather History Date:

Monday, June 17, 2013

  Actual Average Record
Temperature  
Mean Temperature 76 °F 77 °F  
Max Temperature 83 °F 87 °F 96 °F (2015)
Min Temperature 68 °F 67 °F 59 °F (2012)
Cooling Degree Days 11 12  
Month to date cooling degree days 194 179  
Year to date cooling degree days 359 390  
Since 1 June cooling degree days 194 179  
Growing Degree Days 25 (Base 50)    
Moisture  
Dew Point 69 °F    
Average Humidity 81    
Maximum Humidity 93    
Minimum Humidity 69    
Precipitation  
Precipitation 0.97 in 0.17 in 4.02 in (2003)
Month to date precipitation 8.88 2.46  
Year to date precipitation 18.40 24.95  
Sea Level Pressure  
Sea Level Pressure 30.02 in    
Wind  
Wind Speed 3 mph (SW)    
Max Wind Speed 20 mph    
Max Gust Speed 36 mph    
Visibility 7 miles    
Events Fog , Rain , Thunderstorm    
T = Trace of Precipitation, MM = Missing Value Source: NWS Daily Summary

Daily Weather History Graph

Daily Weather History Graph

Search for Another Location

Airport or City:

Trip Planner

Search our weather history database for the weather conditions in past years. The results will help you decide how hot, cold, wet, or windy it might be!

Date:

Astronomy

Jun. 17, 2013 Rise Set
Actual Time 6:26 AM EDT 8:50 PM EDT
Civil Twilight 5:56 AM EDT 9:19 PM EDT
Nautical Twilight 5:21 AM EDT 9:55 PM EDT
Astronomical Twilight 4:41 AM EDT 10:34 PM EDT
Moon 2:41 PM EDT (6/17) 1:46 AM EDT (6/17)
Length of Visible Light 15h 22m
Length of Day
14h 24m
First Quarter, 60% of the Moon is Illuminated
Jun 17
First Quarter
Jun 23
Full
Jun 30
Last Quarter
Jul 8
New
Jul 15
First Quarter

Hourly Weather History & Observations

Time (EDT) Temp. Heat Index Dew Point Humidity Pressure Visibility Wind Dir Wind Speed Gust Speed Precip Events Conditions
12:00 AM 69.8 °F - 66.2 °F 88% 30.14 in 0.8 mi WNW 9.2 mph 25.3 mph 0.28 in Rain Heavy Rain
12:13 AM 68.0 °F - 66.2 °F 94% 30.14 in 1.0 mi SW 5.8 mph 16.1 mph 0.68 in Rain Heavy Rain
12:28 AM 68.0 °F - 66.2 °F 94% 30.13 in 2.0 mi NW 3.5 mph - 0.82 in Rain Heavy Rain
12:39 AM 68.0 °F - 66.2 °F 94% 30.13 in 4.0 mi Calm Calm - 0.84 in Rain Light Rain
12:53 AM 68.0 °F - 66.9 °F 96% 30.08 in 4.0 mi Calm Calm - 0.88 in Rain Rain
1:53 AM 68.0 °F - 66.9 °F 96% 30.04 in 10.0 mi East 3.5 mph - 0.13 in   Mostly Cloudy
2:25 AM 68.0 °F - 66.2 °F 94% 30.08 in 10.0 mi Calm Calm - N/A   Overcast
2:53 AM 68.0 °F - 66.9 °F 96% 30.03 in 9.0 mi Calm Calm - 0.00 in Rain Light Rain
3:53 AM 68.0 °F - 66.9 °F 96% 30.02 in 10.0 mi Calm Calm - 0.04 in   Scattered Clouds
4:53 AM 69.1 °F - 66.9 °F 93% 30.01 in 10.0 mi Calm Calm - N/A   Mostly Cloudy
5:23 AM 69.8 °F - 68.0 °F 94% 30.07 in 10.0 mi SW 4.6 mph - N/A   Overcast
5:36 AM 69.8 °F - 68.0 °F 94% 30.07 in 10.0 mi SSE 3.5 mph - N/A   Overcast
5:53 AM 69.1 °F - 68.0 °F 96% 30.03 in 6.0 mi SSE 3.5 mph - 0.01 in Rain Light Rain
6:03 AM 69.8 °F - 68.0 °F 94% 30.08 in 5.0 mi Variable 3.5 mph - 0.02 in Rain Light Rain
6:53 AM 68.0 °F - 66.9 °F 96% 30.03 in 7.0 mi Calm Calm - 0.07 in Rain Light Rain
7:53 AM 69.1 °F - 66.9 °F 93% 30.02 in 9.0 mi Variable 3.5 mph - 0.00 in   Partly Cloudy
8:36 AM 69.8 °F - 68.0 °F 94% 30.06 in 10.0 mi Calm Calm - N/A   Scattered Clouds
8:53 AM 71.1 °F - 68.0 °F 90% 30.01 in 10.0 mi Calm Calm - N/A   Partly Cloudy
9:38 AM 73.4 °F - 69.8 °F 88% 30.07 in 10.0 mi SSW 10.4 mph - N/A   Mostly Cloudy
9:53 AM 73.0 °F - 69.1 °F 87% 30.02 in 10.0 mi SSW 4.6 mph - N/A   Mostly Cloudy
10:51 AM 75.2 °F - 66.2 °F 73% 30.05 in 10.0 mi Calm Calm - N/A   Scattered Clouds
10:53 AM 75.0 °F - 66.9 °F 76% 30.01 in 10.0 mi Calm Calm - N/A   Scattered Clouds
11:53 AM 79.0 °F - 69.1 °F 72% 30.02 in 10.0 mi Variable 3.5 mph - N/A   Clear
12:32 PM 80.6 °F 83.9 °F 69.8 °F 70% 30.06 in 10.0 mi Calm Calm - N/A   Overcast
12:46 PM 80.6 °F 83.9 °F 69.8 °F 70% 30.06 in 10.0 mi SW 6.9 mph - N/A   Mostly Cloudy
12:53 PM 81.0 °F 84.4 °F 70.0 °F 69% 30.01 in 10.0 mi WSW 3.5 mph - N/A   Mostly Cloudy
1:15 PM 82.4 °F 87.2 °F 71.6 °F 70% 30.05 in 10.0 mi Variable 3.5 mph - N/A Thunderstorm Mostly Cloudy
1:36 PM 80.6 °F 84.6 °F 71.6 °F 74% 30.04 in 10.0 mi North 4.6 mph - N/A   Mostly Cloudy
1:51 PM 75.2 °F - 69.8 °F 83% 30.05 in 2.5 mi South 13.8 mph 18.4 mph 0.05 in Rain , Thunderstorm Heavy Thunderstorms and Rain
1:53 PM 75.0 °F - 69.1 °F 82% 30.01 in 1.5 mi South 11.5 mph 18.4 mph 0.09 in Rain , Thunderstorm Heavy Thunderstorms and Rain
1:59 PM 71.6 °F - 69.8 °F 94% 30.04 in 0.5 mi South 18.4 mph - 0.18 in Fog , Rain , Thunderstorm Heavy Thunderstorms and Rain
2:07 PM 75.2 °F - 69.8 °F 83% 30.03 in 0.5 mi West 4.6 mph 20.7 mph 0.37 in Rain , Thunderstorm Heavy Thunderstorms and Rain
2:11 PM 78.8 °F - 69.8 °F 74% 30.03 in 1.0 mi WSW 4.6 mph 16.1 mph 0.37 in Rain , Thunderstorm Light Thunderstorms and Rain
2:14 PM 78.8 °F - 71.6 °F 78% 30.03 in 5.0 mi SSW 5.8 mph - 0.37 in Rain , Thunderstorm Light Thunderstorms and Rain
2:53 PM 75.0 °F - 72.0 °F 90% 29.98 in 5.0 mi Calm Calm - 0.43 in Rain Light Rain
3:46 PM 80.6 °F 84.6 °F 71.6 °F 74% 29.98 in 8.0 mi Calm Calm - 0.01 in Thunderstorm Scattered Clouds
3:53 PM 80.1 °F 83.8 °F 72.0 °F 76% 29.96 in 8.0 mi Calm Calm - 0.01 in Thunderstorm Scattered Clouds
4:31 PM 73.4 °F - 71.6 °F 94% 29.99 in 6.0 mi NNW 6.9 mph - 0.02 in Rain , Thunderstorm Light Thunderstorms and Rain
4:43 PM 73.4 °F - 71.6 °F 94% 29.99 in 3.0 mi Calm Calm - 0.05 in Rain , Thunderstorm Thunderstorms and Rain
4:53 PM 75.0 °F - 72.0 °F 90% 29.95 in 6.0 mi North 3.5 mph - 0.05 in Rain , Thunderstorm Light Rain
5:00 PM 75.2 °F - 73.4 °F 94% 29.98 in 6.0 mi North 8.1 mph - 0.00 in Thunderstorm Mostly Cloudy
5:27 PM 73.4 °F - 71.6 °F 94% 29.99 in 5.0 mi North 8.1 mph - 0.00 in Rain , Thunderstorm Light Rain
5:53 PM 73.9 °F - 71.1 °F 91% 29.97 in 8.0 mi Calm Calm - 0.03 in Rain , Thunderstorm Light Rain
6:24 PM 75.2 °F - 71.6 °F 89% 30.01 in 9.0 mi Calm Calm - 0.00 in   Mostly Cloudy
6:27 PM 75.2 °F - 71.6 °F 89% 30.01 in 9.0 mi Calm Calm - 0.00 in   Mostly Cloudy
6:53 PM 75.0 °F - 72.0 °F 90% 29.97 in 7.0 mi SSE 3.5 mph - 0.00 in   Mostly Cloudy
7:27 PM 73.4 °F - 69.8 °F 88% 30.03 in 10.0 mi SW 6.9 mph - 0.00 in Rain , Thunderstorm Light Thunderstorms and Rain
7:40 PM 73.4 °F - 69.8 °F 88% 30.03 in 1.8 mi SW 10.4 mph - 0.08 in Rain , Thunderstorm Heavy Thunderstorms and Rain
7:51 PM 73.4 °F - 69.8 °F 88% 30.01 in 3.0 mi Calm Calm - 0.12 in Rain Light Rain
7:53 PM 72.0 °F - 70.0 °F 93% 29.97 in 4.0 mi Calm Calm - 0.12 in Rain Light Rain
8:00 PM 73.4 °F - 69.8 °F 88% 30.00 in 8.0 mi Calm Calm - 0.00 in   Mostly Cloudy
8:53 PM 72.0 °F - 70.0 °F 93% 29.97 in 5.0 mi WSW 8.1 mph - 0.00 in   Clear
9:53 PM 71.1 °F - 69.1 °F 93% 29.95 in 7.0 mi SW 3.5 mph - 0.01 in Rain Light Rain
10:53 PM 70.0 °F - 69.1 °F 97% 29.93 in 6.0 mi Calm Calm - 0.01 in   Scattered Clouds
11:39 PM 69.8 °F - 69.8 °F 100% 29.99 in 5.0 mi Calm Calm - N/A   Scattered Clouds
11:51 PM 71.6 °F - 69.8 °F 94% 29.99 in 6.0 mi Calm Calm - N/A   Mostly Cloudy
11:53 PM 71.1 °F - 70.0 °F 96% 29.95 in 6.0 mi SSW 4.6 mph - N/A   Mostly Cloudy